SCP
0 -0 -0 -0 -0 -0 -0 -0 -0 -0 -0 0 -0 0 0 0 0 0 0 0 0 0
0 0 -0 0 0 -0 -0 -0 0 0 0 0 -0 0 0 0 0 0 0 0 0 0
0 0 -0 -0 -0 0 0 0 0 0 0 0 0 0 0 0 0 0 0 0 0 0
0 0 0 0 -0 0 0 0 0 0 0 0 0 0 0 0 0 0 0 0 -0 0
0 0 0 -0 -0 -0 0 0 0 0 0 0 0 0 0 0 0 0 0 -0 -0 0
0 0 0 0 -0 -0 -0 0 0 0 0 0 0 0 0 0 -0 -0 0 0 0 0
0 0 0 0 0 0 -0 -0 0 0 0 0 0 0 0 0 0 0 0 0 0 0
0 0 0 0 0 0 -0 0 0 0 0 0 0 0 0 0 0 0 0 0 0 0
1 0 0 0 0 0 0 0 0 0 0 0 0 0 0 0 0 0 0 0 0 0
1 1 0 0 0 0 0 0 0 0 0 0 0 0 0 0 0 0 0 0 0 0
1 1 1 1 0 0 0 0 0 0 0 0 0 0 0 0 0 0 0 0 0 0
2 1 1 1 1 1 1 1 1 1 0 0 0 0 0 0 0 -0 -0 0 0 0
2 1 1 1 1 1 1 1 1 1 0 0 0 0 0 0 0 0 0 0 0 0
2 2 1 1 1 1 1 1 1 0 0 0 0 0 0 0 0 0 0 0 0 0
Wind_Speed_500mb
50 52 48 43 42 42 40 34 29 28 27 23 29 30 30 34 37 37 34 30 23 27
56 57 56 51 46 39 44 36 34 28 28 29 25 32 33 30 29 32 35 34 36 30
58 57 63 61 56 45 42 41 39 37 33 29 30 32 34 33 29 28 28 26 30 32
63 58 62 64 60 54 46 38 44 41 38 36 36 38 40 33 31 32 31 30 30 31
60 62 62 65 66 62 58 56 52 48 45 45 40 35 34 36 39 37 37 35 32 30
56 60 62 63 62 63 65 60 53 52 50 43 40 39 37 35 36 36 38 34 36 37
56 57 57 57 59 61 61 60 54 51 49 52 49 45 41 40 38 41 44 41 41 42
55 54 52 53 50 53 55 53 47 41 45 46 47 49 45 42 42 43 44 44 45 46
52 54 52 49 51 43 52 51 46 46 45 43 42 43 42 40 41 43 44 45 43 41
48 50 50 45 46 49 49 49 51 48 48 48 48 47 44 42 43 44 45 46 44 45
53 51 50 47 50 52 50 47 45 50 50 51 49 49 48 48 49 50 48 48 49 50
54 52 57 57 54 54 55 55 55 53 50 49 50 48 46 45 47 50 50 46 42 39
50 54 54 55 52 53 52 48 42 44 40 38 38 38 38 34 31 31 29 26 28 31
52 50 49 51 52 50 37 35 38 41 42 38 33 29 31 32 32 30 33 34 35 31
Wind_Direction_500mb
197 202 206 211 221 216 214 218 212 220 223 216 218 222 230 227 235 242 245 246 246 239
201 205 209 210 218 221 219 219 221 220 223 227 222 224 219 223 236 244 244 240 240 244
205 205 207 212 216 222 224 223 224 223 236 241 245 255 243 241 242 238 243 248 237 239
213 210 211 214 216 219 219 217 224 233 246 253 259 257 255 251 249 245 236 233 234 241
218 217 216 220 220 218 220 225 231 239 246 247 247 251 233 250 252 250 247 244 247 251
217 218 220 222 224 223 224 229 234 241 243 246 246 243 243 256 253 243 246 248 253 259
217 221 220 223 225 226 229 234 240 244 250 253 254 255 260 261 259 252 254 255 256 262
222 227 226 226 230 230 228 232 236 244 250 253 254 258 261 261 260 261 264 268 269 268
228 231 233 233 235 238 237 234 237 243 249 253 256 259 260 267 268 269 268 270 270 268
232 238 233 238 240 238 238 235 238 244 246 253 257 262 263 265 265 265 263 262 268 272
236 242 238 236 235 238 240 244 244 250 250 257 257 259 257 258 261 262 264 266 268 270
238 242 244 243 237 239 236 246 247 249 251 252 257 261 260 261 263 264 262 261 264 269
233 236 245 245 240 241 241 245 244 247 249 253 257 261 265 262 258 254 252 254 260 262
231 237 239 244 247 243 239 238 236 242 249 254 254 251 252 254 256 253 256 262 265 264
Wind_Speed_850mb
50 52 48 43 42 42 40 34 29 28 27 23 29 30 30 34 37 37 34 30 23 27
56 57 56 51 46 39 44 36 34 28 28 29 25 32 33 30 29 32 35 34 36 30
58 57 63 61 56 45 42 41 39 37 33 29 30 32 34 33 29 28 28 26 30 32
63 58 62 64 60 54 46 38 44 41 38 36 36 38 40 33 31 32 31 30 30 31
60 62 62 65 66 62 58 56 52 48 45 45 40 35 34 36 39 37 37 35 32 30
56 60 62 63 62 63 65 60 53 52 50 43 40 39 37 35 36 36 38 34 36 37
56 57 57 57 59 61 61 60 54 51 49 52 49 45 41 40 38 41 44 41 41 42
55 54 52 53 50 53 55 53 47 41 45 46 47 49 45 42 42 43 44 44 45 46
52 54 52 49 51 43 52 51 46 46 45 43 42 43 42 40 41 43 44 45 43 41
48 50 50 45 46 49 49 49 51 48 48 48 48 47 44 42 43 44 45 46 44 45
53 51 50 47 50 52 50 47 45 50 50 51 49 49 48 48 49 50 48 48 49 50
54 52 57 57 54 54 55 55 55 53 50 49 50 48 46 45 47 50 50 46 42 39
50 54 54 55 52 53 52 48 42 44 40 38 38 38 38 34 31 31 29 26 28 31
52 50 49 51 52 50 37 35 38 41 42 38 33 29 31 32 32 30 33 34 35 31
Wind_Direction_850mb
197 202 206 211 221 216 214 218 212 220 223 216 218 222 230 227 235 242 245 246 246 239
201 205 209 210 218 221 219 219 221 220 223 227 222 224 219 223 236 244 244 240 240 244
205 205 207 212 216 222 224 223 224 223 236 241 245 255 243 241 242 238 243 248 237 239
213 210 211 214 216 219 219 217 224 233 246 253 259 257 255 251 249 245 236 233 234 241
218 217 216 220 220 218 220 225 231 239 246 247 247 251 233 250 252 250 247 244 247 251
217 218 220 222 224 223 224 229 234 241 243 246 246 243 243 256 253 243 246 248 253 259
217 221 220 223 225 226 229 234 240 244 250 253 254 255 260 261 259 252 254 255 256 262
222 227 226 226 230 230 228 232 236 244 250 253 254 258 261 261 260 261 264 268 269 268
228 231 233 233 235 238 237 234 237 243 249 253 256 259 260 267 268 269 268 270 270 268
232 238 233 238 240 238 238 235 238 244 246 253 257 262 263 265 265 265 263 262 268 272
236 242 238 236 235 238 240 244 244 250 250 257 257 259 257 258 261 262 264 266 268 270
238 242 244 243 237 239 236 246 247 249 251 252 257 261 260 261 263 264 262 261 264 269
233 236 245 245 240 241 241 245 244 247 249 253 257 261 265 262 258 254 252 254 260 262
231 237 239 244 247 243 239 238 236 242 249 254 254 251 252 254 256 253 256 262 265 264